******************************************************************************* JPL/HORIZONS (2023 CX1) 2023-Jun-07 12:52:28 Rec #:50668310 (+COV) Soln.date: 2023-Feb-16_12:37:28 # obs: 299 (1 days) IAU76/J2000 helio. ecliptic osc. elements (au, days, deg., period=Julian yrs): EPOCH= 2459988.5 ! 2023-Feb-13.00 (TDB) Residual RMS= .74934 EC= .4551632597828492 QR= .918270085071718 TP= 2460018.9953348022 OM= 323.8325593676868 W= 219.0364365617507 IN= 3.564946888577392 A= 1.685404117030968 MA= 346.2633319368164 ADIST= 2.452538148990218 PER= 2.18809 N= .450451459 ANGMOM= .019884859 DAN= 2.06702 DDN= .98721 L= 182.8147161 B= -2.2443807 MOID= 2.991E-5 TP= 2023-Mar-15.4953348022 Asteroid physical parameters (km, seconds, rotational period in hours): GM= n.a. RAD= n.a. ROTPER= n.a. H= 32.76 G= .150 B-V= n.a. ALBEDO= n.a. STYP= n.a. ASTEROID comments: 1: soln ref.= JPL#4, OCC=5 2: source=ORB ******************************************************************************* ******************************************************************************* Ephemeris / WWW_USER Wed Jun 7 12:52:28 2023 Pasadena, USA / Horizons ******************************************************************************* Target body name: (2023 CX1) {source: JPL#4} Center body name: Earth (399) {source: DE441} Center-site name: GEOCENTRIC ******************************************************************************* Start time : A.D. 2021-Feb-12 00:00:00.0000 UT Stop time : A.D. 2021-Feb-14 00:00:00.0000 UT Step-size : 180 minutes ******************************************************************************* Target pole/equ : undefined Target radii : undefined Center geodetic : 0.0, 0.0, -6378.137 {E-lon(deg),Lat(deg),Alt(km)} Center cylindric: 0.0, 0.0, 0.0 {E-lon(deg),Dxy(km),Dz(km)} Center pole/equ : ITRF93 {East-longitude positive} Center radii : 6378.137, 6378.137, 6356.752 km {Equator_a, b, pole_c} Target primary : Sun Vis. interferer : MOON (R_eq= 1737.400) km {source: DE441} Rel. light bend : Sun {source: DE441} Rel. lght bnd GM: 1.3271E+11 km^3/s^2 Small-body perts: Yes {source: SB441-N16} Atmos refraction: NO (AIRLESS) RA format : HMS Time format : CAL Calendar mode : Mixed Julian/Gregorian EOP file : eop.230606.p230829 EOP coverage : DATA-BASED 1962-JAN-20 TO 2023-JUN-06. PREDICTS-> 2023-AUG-28 Units conversion: 1 au= 149597870.700 km, c= 299792.458 km/s, 1 day= 86400.0 s Table cut-offs 1: Elevation (-90.0deg=NO ),Airmass (>38.000=NO), Daylight (NO ) Table cut-offs 2: Solar elongation ( 0.0,180.0=NO ),Local Hour Angle( 0.0=NO ) Table cut-offs 3: RA/DEC angular rate ( 0.0=NO ) ******************************************************************************* Initial IAU76/J2000 heliocentric ecliptic osculating elements (au, days, deg.): EPOCH= 2459988.5 ! 2023-Feb-13.00 (TDB) Residual RMS= .74934 EC= .4551632597828492 QR= .918270085071718 TP= 2460018.9953348022 OM= 323.8325593676868 W= 219.0364365617507 IN= 3.564946888577392 Equivalent ICRF heliocentric cartesian coordinates (au, au/d): X=-7.957437725053662E-01 Y= 5.369484927013383E-01 Z= 2.329939969745115E-01 VX=-8.455668344546812E-03 VY=-1.667796939174505E-02 VZ=-8.595885058974514E-03 Asteroid physical parameters (km, seconds, rotational period in hours): GM= n.a. RAD= n.a. ROTPER= n.a. H= 32.76 G= .150 B-V= n.a. ALBEDO= n.a. STYP= n.a. ******************************************************************************* Date__(UT)__HR:MN r rdot ************************************************** $$SOE 2021-Feb-12 00:00 0.922600666403 -0.3892156 2021-Feb-12 03:00 0.922573746310 -0.3565811 2021-Feb-12 06:00 0.922549182324 -0.3239418 2021-Feb-12 09:00 0.922526974776 -0.2912981 2021-Feb-12 12:00 0.922507123966 -0.2586505 2021-Feb-12 15:00 0.922489630163 -0.2259994 2021-Feb-12 18:00 0.922474493602 -0.1933453 2021-Feb-12 21:00 0.922461714489 -0.1606885 2021-Feb-13 00:00 0.922451292994 -0.1280296 2021-Feb-13 03:00 0.922443229259 -0.0953689 2021-Feb-13 06:00 0.922437523393 -0.0627070 2021-Feb-13 09:00 0.922434175471 -0.0300442 2021-Feb-13 12:00 0.922433185538 0.0026190 2021-Feb-13 15:00 0.922434553606 0.0352821 2021-Feb-13 18:00 0.922438279657 0.0679448 2021-Feb-13 21:00 0.922444363639 0.1006065 2021-Feb-14 00:00 0.922452805469 0.1332668 $$EOE ******************************************************************************* Column meaning: TIME Times PRIOR to 1962 are UT1, a mean-solar time closely related to the prior but now-deprecated GMT. Times AFTER 1962 are in UTC, the current civil or "wall-clock" time-scale. UTC is kept within 0.9 seconds of UT1 using integer leap-seconds for 1972 and later years. Conversion from the internal Barycentric Dynamical Time (TDB) of solar system dynamics to the non-uniform civil UT time-scale requested for output has not been determined for UTC times after the next July or January 1st. Therefore, the last known leap-second is used as a constant over future intervals. Time tags refer to the UT time-scale conversion from TDB on Earth regardless of observer location within the solar system, although clock rates may differ due to the local gravity field and no analog to "UT" may be defined for that location. Any 'b' symbol in the 1st-column denotes a B.C. date. First-column blank (" ") denotes an A.D. date. CALENDAR SYSTEM Mixed calendar mode was active such that calendar dates after AD 1582-Oct-15 (if any) are in the modern Gregorian system. Dates prior to 1582-Oct-5 (if any) are in the Julian calendar system, which is automatically extended for dates prior to its adoption on 45-Jan-1 BC. The Julian calendar is useful for matching historical dates. The Gregorian calendar more accurately corresponds to the Earth's orbital motion and seasons. A "Gregorian-only" calendar mode is available if such physical events are the primary interest. NOTE: "n.a." in output means quantity "not available" at the print-time. 'r rdot' = The Sun's apparent range ("r", light-time aberrated) and range-rate ("rdot") relative to the target center, as seen by the observer. A positive "rdot" means the target center was moving away from the Sun, negative means moving toward the Sun. Units: AU and KM/S Computations by ... Solar System Dynamics Group, Horizons On-Line Ephemeris System 4800 Oak Grove Drive, Jet Propulsion Laboratory Pasadena, CA 91109 USA General site: https://ssd.jpl.nasa.gov/ Mailing list: https://ssd.jpl.nasa.gov/email_list.html System news : https://ssd.jpl.nasa.gov/horizons/news.html User Guide : https://ssd.jpl.nasa.gov/horizons/manual.html Connect : browser https://ssd.jpl.nasa.gov/horizons/app.html#/x API https://ssd-api.jpl.nasa.gov/doc/horizons.html command-line telnet ssd.jpl.nasa.gov 6775 e-mail/batch https://ssd.jpl.nasa.gov/ftp/ssd/hrzn_batch.txt scripts https://ssd.jpl.nasa.gov/ftp/ssd/SCRIPTS Author : Jon.D.Giorgini@jpl.nasa.gov ******************************************************************************* !$$SOF COMMAND = '2023 CX1' START_TIME = '2021-Feb-12' STOP_TIME = '2021-Feb-14' STEP_SIZE = '3 hours' QUANTITIES = '19'